Flag for Sweden Weather past 2 weeks in Gothenburg, Sweden

Now
59 °F

Fog.


Feels Like: 57 °F
Forecast: 56 / 61 °F
Wind: 10 mph from East

Location: Gothenburg / Save

Current Time: Sep 1, 2015 at 7:10:15 PM

Latest Report: Sep 1, 2015 at 6:50 PM


Visibility: 3 mi

Pressure: 29.62 "Hg

Humidity: 94%

Dew point: 57 °F

Location of GothenburgLocation

Historic Weather in Gothenburg — Graph

°F

Gothenburg temperature yesterday

Maximum temperature yesterday: 64 °F (at 2:50 PM)
Minimum temperature yesterday: 54 °F (at 12:50 AM)
Average temperature yesterday: 59 °F

Past Weeks' High & Low Weather Summary

 TemperatureHumidityPressure
High77 °F (Aug 18, 3:50 PM)100% (Aug 22, 2:50 AM)30.36 "Hg (Aug 22, 2:50 AM)
Low46 °F (Aug 22, 4:20 AM)34% (Aug 18, 5:50 PM)29.59 "Hg (Aug 27, 12:20 PM)
Average62 °F75%30.02 "Hg
* Reported Aug 17 5:20 PM — Sep 1 5:50 PM, Gothenburg, Weather by CustomWeather, © 2015

Note: Actual official high and low records may vary slightly from our data, if they occured in-between our weather recording intervals... More about our weather records

Advertising

Gothenburg weather history for previous 24 hours

 ConditionsComfort  
Time TempWeatherWind HumidityBarometerVisibility
5:50 PM
Tue, Sep 1
61 °FMostly cloudy.7 mph88%29.65 "HgN/A
5:20 PM61 °FMostly cloudy.7 mph88%29.65 "HgN/A
4:50 PM59 °FDrizzle. Mostly cloudy.6 mph94%29.65 "HgN/A
4:20 PM59 °FOvercast.8 mph94%29.65 "Hg4 mi
3:50 PM59 °FDrizzle. Overcast.7 mph94%29.65 "Hg4 mi
3:20 PM59 °FOvercast.9 mph88%29.65 "HgN/A
2:50 PM59 °FOvercast.8 mph88%29.65 "HgN/A
2:20 PM59 °FOvercast.8 mph88%29.65 "HgN/A
1:50 PM59 °FOvercast.8 mph88%29.68 "HgN/A
1:20 PM59 °FPartly sunny.12 mph88%29.65 "HgN/A
12:50 PM59 °FPartly sunny.12 mph88%29.65 "HgN/A
12:20 PM59 °FMostly cloudy.10 mph88%29.65 "HgN/A
11:50 AM59 °FCloudy.9 mph88%29.68 "HgN/A
11:20 AM57 °FFog.9 mph94%29.68 "Hg4 mi
10:50 AM57 °FFog.10 mph94%29.68 "Hg4 mi
10:20 AM57 °FMostly cloudy.10 mph94%29.68 "HgN/A
9:50 AM57 °FMostly cloudy.10 mph94%29.68 "HgN/A
9:20 AM57 °FBroken clouds.12 mph94%29.68 "HgN/A
8:50 AM57 °FBroken clouds.9 mph94%29.68 "HgN/A
8:20 AM57 °FMostly cloudy.9 mph94%29.68 "HgN/A
7:50 AM57 °FLight rain. Overcast.10 mph94%29.68 "HgN/A
7:20 AM57 °FMostly cloudy.9 mph94%29.71 "HgN/A
6:50 AM57 °FMostly cloudy.8 mph94%29.71 "HgN/A
5:20 AM57 °FMostly cloudy.9 mph94%29.71 "HgN/A
4:50 AM57 °FDrizzle. Mostly cloudy.10 mph94%29.71 "HgN/A
4:20 AM57 °FDrizzle. Mostly cloudy.12 mph94%29.71 "HgN/A
3:50 AM57 °FLight rain. Mostly cloudy.12 mph94%29.74 "HgN/A
3:20 AM57 °FLight rain. Mostly cloudy.10 mph94%29.77 "HgN/A
2:50 AM57 °FLight rain. Overcast.8 mph94%29.77 "HgN/A
2:20 AM57 °FRain. Overcast.8 mph94%29.80 "Hg5 mi
1:50 AM57 °FLight rain. Mostly cloudy.12 mph94%29.80 "HgN/A
1:20 AM57 °FLight rain. Overcast.12 mph94%29.83 "Hg5 mi
12:50 AM57 °FRain. Partly cloudy.8 mph94%29.86 "Hg4 mi
12:20 AM57 °FRain. Mostly cloudy.7 mph94%29.86 "Hg4 mi
11:20 PM
Mon, Aug 31
57 °FLight rain. Mostly cloudy.7 mph94%29.89 "HgN/A
10:50 PM57 °FLight rain. Overcast.8 mph94%29.89 "HgN/A
10:20 PM59 °FLight rain. Overcast.5 mph88%29.92 "Hg6 mi
9:50 PM59 °FLight rain. Overcast.5 mph94%29.92 "HgN/A
9:20 PM59 °FDrizzle. Mostly cloudy.3 mph94%29.92 "HgN/A
8:50 PM59 °FDrizzle. Cloudy.3 mph94%29.92 "HgN/A
7:50 PM63 °FSunny.3 mph77%29.95 "Hg10 mi
7:20 PM63 °FSunny.3 mph77%29.92 "Hg10 mi
Weather by CustomWeather, © 2015

See weather overviewHow to use our weather pages